Total_Precipitation_Accumulation
1.95 2.01 1.96 1.94 1.91 1.81 1.78 1.90 1.96 1.81 1.68 1.51 1.37 1.29 1.30 1.25 1.35 1.19 1.11 1.00 0.81 0.72 0.64 0.60 0.71 0.97 1.11 1.30 1.45 1.50 1.61 1.71 1.81 1.82 1.68 1.57 1.56 1.49
1.93 2.03 2.04 2.04 2.07 1.99 1.87 1.83 1.76 1.80 1.72 1.50 1.31 1.21 1.34 1.23 1.35 1.17 1.11 1.23 1.00 0.82 0.74 0.68 0.63 0.67 0.76 0.85 0.99 1.04 1.07 1.19 1.38 1.59 1.65 1.67 1.61 1.50
1.73 1.82 1.94 2.03 2.16 2.18 2.16 2.03 1.88 1.84 1.75 1.59 1.38 1.24 1.37 1.43 1.37 1.31 1.21 1.12 1.06 0.97 0.87 0.84 0.77 0.65 0.71 0.75 0.83 0.85 0.85 0.87 0.94 1.11 1.28 1.35 1.54 1.51
1.57 1.55 1.62 1.74 1.89 2.04 2.12 2.06 2.05 1.95 1.85 1.81 1.64 1.38 1.28 1.35 1.40 1.47 1.40 1.20 1.13 1.16 1.07 0.98 0.92 0.78 0.71 0.70 0.75 0.75 0.73 0.73 0.77 0.80 0.89 0.96 1.03 1.17
1.36 1.33 1.35 1.45 1.59 1.72 1.80 1.88 1.99 2.04 2.03 1.93 1.84 1.65 1.41 1.41 1.45 1.45 1.47 1.57 1.34 1.23 1.22 1.17 1.10 1.02 0.94 0.85 0.80 0.77 0.71 0.66 0.68 0.69 0.71 0.83 0.85 0.94
1.08 1.09 1.14 1.18 1.26 1.38 1.52 1.73 1.93 2.04 2.11 2.10 2.00 1.77 1.60 1.57 1.54 1.53 1.59 1.66 1.65 1.44 1.32 1.24 1.28 1.22 1.09 1.02 0.94 0.88 0.83 0.76 0.72 0.73 0.71 0.71 0.75 0.75
0.88 0.79 0.81 0.87 0.88 0.97 1.02 1.31 1.56 1.79 1.93 2.00 1.98 1.84 1.63 1.52 1.40 1.44 1.57 1.73 1.82 1.77 1.68 1.41 1.33 1.28 1.22 1.17 1.09 1.00 0.93 0.88 0.81 0.76 0.77 0.79 0.83 0.82
0.77 0.70 0.68 0.72 0.63 0.60 0.63 0.85 1.15 1.36 1.55 1.73 1.79 1.68 1.54 1.46 1.50 1.50 1.51 1.57 1.60 1.53 1.53 1.54 1.47 1.36 1.28 1.22 1.23 1.21 1.13 1.04 0.96 0.88 0.87 0.86 0.91 0.99
0.79 0.81 0.74 0.69 0.77 0.68 0.62 0.69 0.78 0.89 1.05 1.32 1.54 1.54 1.63 1.55 1.46 1.41 1.43 1.47 1.47 1.53 1.54 1.54 1.45 1.35 1.22 1.17 1.31 1.25 1.25 1.20 1.14 1.06 0.98 0.98 0.98 1.00
0.84 0.93 0.94 0.88 0.85 0.93 0.88 0.89 0.85 0.78 0.85 0.77 0.99 1.37 1.51 1.57 1.51 1.54 1.64 1.57 1.45 1.48 1.50 1.52 1.44 1.33 1.18 1.09 1.18 1.11 1.06 1.06 1.10 1.17 1.19 1.18 1.16 1.15
0.79 0.90 0.94 0.88 0.92 0.98 1.11 1.17 1.10 0.94 1.05 1.06 0.98 1.09 1.23 1.29 1.40 1.49 1.56 1.49 1.44 1.36 1.26 1.23 1.18 1.21 1.26 1.17 1.13 1.17 1.08 1.03 0.98 0.96 0.97 1.01 1.09 1.20
0.81 0.87 1.01 0.93 0.90 0.88 0.97 1.12 1.11 0.98 0.86 0.90 0.87 0.77 0.71 0.82 1.02 1.18 1.46 1.57 1.51 1.40 1.21 1.15 1.17 1.14 1.17 1.11 1.02 1.06 1.05 1.10 1.07 0.98 0.94 0.93 0.98 0.98
0.93 0.98 0.95 1.03 0.86 0.83 0.84 0.86 0.95 0.95 0.92 0.97 1.05 0.94 0.82 0.77 0.81 0.89 1.10 1.31 1.43 1.34 1.22 1.10 1.13 1.15 1.05 0.94 0.92 0.95 0.96 0.94 0.97 1.01 1.02 1.02 1.03 0.95
0.82 0.82 0.78 0.86 0.72 0.64 0.60 0.66 0.74 0.80 0.89 1.01 1.01 0.97 0.96 0.90 0.88 0.91 0.95 1.05 1.14 1.20 1.20 1.16 1.11 1.09 1.06 0.93 0.88 0.89 0.91 0.91 0.88 0.90 0.91 1.07 1.12 1.14
0.54 0.62 0.63 0.62 0.58 0.51 0.56 0.60 0.63 0.66 0.77 0.85 0.87 0.84 0.85 0.89 0.90 0.90 0.92 0.95 0.95 0.89 0.87 0.93 1.03 1.08 1.10 1.02 0.90 0.87 0.89 0.86 0.82 0.82 0.86 0.88 0.88 0.97
0.45 0.48 0.48 0.48 0.49 0.50 0.53 0.57 0.63 0.68 0.71 0.74 0.74 0.77 0.79 0.86 0.92 0.90 0.89 0.94 0.98 0.94 0.88 0.89 0.96 1.08 1.12 1.05 0.99 0.91 0.90 0.89 0.82 0.80 0.80 0.83 0.86 0.88
0.55 0.50 0.47 0.47 0.50 0.56 0.59 0.58 0.62 0.67 0.67 0.66 0.68 0.70 0.70 0.76 0.81 0.82 0.83 0.85 0.85 0.81 0.82 0.89 0.95 1.00 1.02 1.02 1.03 0.97 1.00 1.01 0.98 0.96 0.93 0.87 0.82 0.82
0.53 0.61 0.63 0.68 0.71 0.70 0.68 0.60 0.55 0.57 0.63 0.69 0.69 0.69 0.70 0.69 0.73 0.76 0.77 0.81 0.81 0.73 0.67 0.70 0.81 0.92 0.92 0.86 0.81 0.81 0.88 0.92 1.00 1.06 1.02 0.96 0.87 0.84
0.49 0.67 0.68 0.66 0.63 0.62 0.59 0.53 0.48 0.45 0.47 0.57 0.67 0.74 0.75 0.75 0.78 0.81 0.80 0.76 0.74 0.73 0.68 0.64 0.67 0.79 0.84 0.74 0.67 0.63 0.67 0.75 0.84 0.90 0.92 0.88 0.82 0.82
0.47 0.57 0.59 0.58 0.50 0.45 0.40 0.35 0.35 0.33 0.33 0.39 0.45 0.54 0.70 0.81 0.89 0.90 0.90 0.91 0.88 0.84 0.79 0.71 0.64 0.63 0.68 0.69 0.62 0.54 0.55 0.63 0.71 0.73 0.75 0.79 0.79 0.85
0.27 0.28 0.30 0.32 0.32 0.28 0.26 0.27 0.28 0.28 0.30 0.31 0.35 0.40 0.50 0.64 0.82 0.91 0.92 0.96 0.94 0.93 0.90 0.81 0.77 0.81 0.76 0.77 0.73 0.55 0.49 0.54 0.60 0.63 0.65 0.71 0.72 0.71
0.16 0.16 0.16 0.17 0.19 0.20 0.21 0.22 0.26 0.28 0.27 0.30 0.35 0.42 0.52 0.57 0.62 0.72 0.84 0.86 0.80 0.76 0.77 0.79 0.83 0.85 0.83 0.86 0.81 0.67 0.56 0.52 0.59 0.65 0.65 0.65 0.63 0.60
0.16 0.15 0.16 0.16 0.19 0.25 0.26 0.25 0.26 0.28 0.28 0.29 0.34 0.41 0.49 0.59 0.63 0.64 0.68 0.71 0.74 0.76 0.77 0.78 0.79 0.80 0.82 0.86 0.90 0.85 0.73 0.65 0.64 0.66 0.67 0.76 0.71 0.59